MST,Max TemperatureF,Mean TemperatureF,Min TemperatureF,Max Dew PointF,MeanDew PointF,Min DewpointF,Max Humidity, Mean Humidity, Min Humidity, Max Sea Level PressureIn, Mean Sea Level PressureIn, Min Sea Level PressureIn, Max VisibilityMiles, Mean VisibilityMiles, Min VisibilityMiles, Max Wind SpeedMPH, Mean Wind SpeedMPH, Max Gust SpeedMPH,PrecipitationIn, CloudCover, Events, WindDirDegrees
2012-11-1,53,37,20,16,11,4,77,46,14,30.18,30.01,29.88,10,10,10,15,4,20,0.00,0,,5
2012-11-2,46,34,21,12,10,6,55,37,19,30.07,29.95,29.82,10,10,10,15,7,24,0.00,1,,352
2012-11-3,46,31,15,16,12,6,73,47,20,30.22,30.12,30.03,10,10,10,17,6,23,0.00,0,,320
2012-11-4,45,34,22,20,16,12,69,49,28,30.32,30.20,30.10,10,10,10,23,7,31,0.00,0,,342
2012-11-5,48,37,25,25,22,21,81,60,38,30.31,30.23,30.11,10,10,10,24,9,32,0.00,0,,349
2012-11-6,52,38,24,22,17,14,81,52,22,30.35,30.22,30.12,10,10,10,16,7,21,0.00,0,,3
2012-11-7,55,38,20,14,11,5,65,39,13,30.25,30.05,29.86,10,10,10,18,7,25,0.00,0,,14
2012-11-8,52,36,20,14,9,2,55,34,13,30.00,29.82,29.67,10,10,10,20,6,32,0.00,0,,149
2012-11-9,46,37,28,26,18,8,85,57,28,29.80,29.58,29.44,10,10,7,32,10,41,0.01,4,Snow,156
2012-11-10,33,20,7,27,17,0,92,67,41,29.68,29.53,29.25,10,4,0,23,10,31,0.11,7,Fog-Snow,191
2012-11-11,13,10,6,5,1,-5,80,69,57,30.34,29.94,29.66,10,4,0,30,11,37,0.04,8,Fog-Snow,320
2012-11-12,31,13,-5,9,1,-9,78,57,35,30.53,30.39,30.24,10,10,10,15,7,22,0.00,2,,6
2012-11-13,32,22,12,14,9,3,74,60,45,30.33,30.25,30.18,10,10,10,22,7,29,0.00,2,,350
2012-11-14,40,24,8,8,2,-7,73,46,18,30.30,30.18,30.09,10,10,10,15,6,23,0.00,0,,16
2012-11-15,38,26,13,11,8,4,67,48,29,30.36,30.21,30.08,10,10,10,18,5,24,0.00,0,,355
2012-11-16,43,26,9,16,10,4,70,45,20,30.30,30.19,30.07,10,10,10,15,4,23,0.00,2,,88
2012-11-17,45,32,19,20,15,11,84,55,25,30.18,30.05,29.95,10,10,10,16,5,22,0.00,2,,95
2012-11-18,39,28,17,22,18,14,81,63,44,30.11,30.01,29.92,10,10,10,18,7,23,0.00,3,,9
2012-11-19,42,31,20,17,14,7,77,50,22,30.30,30.19,30.08,10,10,10,15,7,22,0.00,0,,6
2012-11-20,49,33,17,13,10,7,67,43,19,30.35,30.20,30.06,10,10,10,13,6,17,0.00,0,,16
2012-11-21,50,34,18,10,2,-5,67,39,10,30.16,30.01,29.86,10,10,10,16,6,23,0.00,0,,5
2012-11-22,42,31,20,17,10,3,57,40,23,30.30,30.09,29.83,10,10,10,22,8,30,0.00,0,,345
2012-11-23,43,30,16,13,9,5,74,48,22,30.45,30.35,30.27,10,10,10,17,6,21,0.00,0,,355
2012-11-24,46,34,22,6,4,2,47,33,18,30.26,30.10,29.92,10,10,10,20,7,25,0.00,0,,343
2012-11-25,43,31,19,9,4,-1,49,33,17,29.99,29.86,29.75,10,10,10,20,7,32,0.00,1,,347
2012-11-26,37,27,16,11,1,-14,61,36,11,30.27,30.07,29.86,10,10,10,21,8,28,0.00,0,,353
2012-11-27,43,28,12,-1,-13,-23,34,20,5,30.28,30.19,30.11,10,10,10,18,7,26,0.00,0,,4
2012-11-28,43,27,11,6,-3,-13,46,29,11,30.32,30.20,30.06,10,10,10,18,7,28,0.00,0,,11
2012-11-29,42,29,15,19,14,4,68,51,33,30.09,30.03,29.95,10,10,10,20,9,25,0.00,1,,352
2012-11-30,48,32,16,20,14,9,74,48,21,30.14,29.97,29.73,10,10,10,17,5,23,0.00,1,,359